Home   Weather   Miramichi   Past weeks

Flag for Canada Past Weather in Miramichi, New Brunswick, Canada — Yesterday and Last 2 Weeks

43 °F

Broken clouds.

Feels Like: 34 °F
Forecast: 37 / 44 °F
Wind: 22 mph from West

Location: Bathurst Airport

Current Time: Oct 24, 2016 at 11:23:14 AM

Latest Report: Oct 24, 2016 at 11:00 AM

Visibility: 15 mi

Pressure: 29.43 "Hg

Humidity: 49%

Dew Point: 25 °F

Location of MiramichiLocation

Past Weather in Miramichi — Graph


Miramichi Temperature Yesterday

Maximum temperature yesterday: 54 °F (at 3:00 AM)
Minimum temperature yesterday: 39 °F (at 9:00 PM)
Average temperature yesterday: 46 °F

High & Low Weather Summary for the Past Weeks

High64 °F (Oct 13, 2:00 PM)100% (Oct 16, 11:54 PM)30.45 "Hg (Oct 16, 11:54 PM)
Low25 °F (Oct 15, 8:00 AM)23% (Oct 11, 3:00 PM)29.12 "Hg (Oct 23, 12:48 PM)
Average48 °F74%29.93 "Hg
* Reported Oct 9 10:00 AM — Oct 24 10:00 AM, Miramichi, Weather by CustomWeather, © 2016

Note: Actual official high and low records may vary slightly from our data, if they occured in-between our weather recording intervals... More about our weather records


Miramichi Weather History for the Previous 24 Hours

Scroll right to see more
Time TempWeatherWind HumidityBarometerVisibility
10:00 AM
Mon, Oct 24
41 °FScattered clouds.22 mph57%29.43 "Hg15 mi
9:00 AM39 °FScattered clouds.22 mph61%29.41 "Hg15 mi
8:00 AM37 °FScattered clouds.18 mph70%29.39 "Hg15 mi
7:00 AM39 °FOvercast.16 mph65%29.37 "Hg15 mi
6:00 AM39 °FOvercast.16 mph70%29.34 "Hg15 mi
5:00 AM39 °FLight rain. Overcast.14 mph70%29.32 "Hg7 mi
4:00 AM39 °FLight rain. Overcast.10 mph75%29.30 "Hg7 mi
3:00 AM39 °FLight rain. Overcast.14 mph75%29.28 "Hg7 mi
2:00 AM41 °FLight rain. Overcast.12 mph70%29.27 "Hg7 mi
1:00 AM41 °FOvercast.10 mph70%29.26 "Hg15 mi
12:00 AM41 °FOvercast.9 mph76%29.24 "Hg15 mi
11:00 PM
Sun, Oct 23
39 °FOvercast.6 mph81%29.25 "Hg15 mi
10:00 PM39 °FOvercast.6 mph87%29.24 "Hg15 mi
9:00 PM39 °FOvercast.8 mph87%29.23 "Hg15 mi
8:00 PM41 °FOvercast.7 mph81%29.22 "Hg15 mi
7:00 PM41 °FPassing clouds.5 mph81%29.20 "Hg15 mi
6:00 PM43 °FPartly sunny.10 mph76%29.18 "Hg15 mi
5:54 PM43 °FPartly sunny.12 mph76%29.18 "Hg15 mi
5:00 PM43 °FBroken clouds.14 mph71%29.17 "Hg15 mi
4:00 PM43 °FBroken clouds.16 mph76%29.15 "Hg12 mi
3:50 PM43 °FBroken clouds.14 mph81%29.15 "Hg15 mi
3:00 PM43 °FMostly cloudy.12 mph76%29.15 "Hg15 mi
2:00 PM45 °FMostly cloudy.16 mph81%29.13 "Hg12 mi
1:54 PM45 °FMostly cloudy.10 mph81%29.13 "Hg12 mi
1:00 PM46 °FSprinkles. Mostly cloudy.13 mph82%29.12 "Hg8 mi
12:48 PM48 °FSprinkles. Mostly cloudy.12 mph76%29.12 "Hg12 mi
12:00 PM48 °FSprinkles. Partly sunny.10 mph87%29.12 "Hg12 mi
11:00 AM48 °FSprinkles. Partly sunny.15 mph82%29.13 "Hg15 mi
Weather by CustomWeather, © 2016

See weather overviewHow to use our weather pages